[[{"header":{"parameterUnit":"m.s-1","parameterCategory":2,"la1":30.2991,"la2":30.254,"lo1":-89.0895,"lo2":-89.0444,"dy":0.0017,"dx":0.0017,"nx":28,"ny":28,"refTime":"2024-12-01T03:00:00:Z","depth":"0","parameterNumber":2,"parameterNumberName":"U-component_of_CURRENTS"},"data":[0,0,0,0,0,0,0,0,0,0,0,0,0,0,0,0,0,0,0,0,0,0,0,0,0,0,0,0,0,0,0,0,0,0,0,0,0,0,0,0,0,0,0,0,0,0,0,0,0,0,0,0,0,0,0,0,0,0,0.2072,0.2071,0,0.2036,0.2036,0.2036,0.2003,0.2002,0.2002,0.2002,0.1996,0.1996,0.1996,0,0,0,0,0,0,0,0,0,0,0,0,0,0.219,0.2188,0.2072,0.2071,0.2071,0.2036,0.2036,0.2035,0.2003,0.2002,0.2002,0.2001,0.1996,0.1996,0.1996,0,0,0,0,0,0,0,0,0,0,0,0,0,0.2145,0.2187,0.2072,0.205,0.2048,0.2036,0.2036,0.2035,0.2003,0.2002,0.2002,0.2001,0.1996,0.1996,0.1996,0.2012,0,0,0.1998,0.1998,0,0,0,0,0,0,0,0,0.2148,0.2141,0.2054,0.2052,0.2049,0.2023,0.2075,0.2029,0.2003,0.2021,0.2002,0.2001,0.2008,0.2007,0.2002,0.2012,0.2012,0.1998,0.1998,0.1998,0.1998,0,0,0,0,0,0,0,0.2151,0.2143,0.2058,0.2053,0.205,0.2069,0.2061,0.2067,0.2019,0.2019,0.2016,0.2012,0.2007,0.2002,0.2002,0.2012,0.1998,0.1998,0.1998,0.1998,0.2045,0.2046,0,0,0,0,0,0,0.215,0.2145,0.2059,0.2057,0.2097,0.2067,0.2058,0.2032,0.2019,0.2015,0.2013,0.2011,0.2002,0.2002,0.2002,0.2028,0.1998,0.1998,0.1999,0.2044,0.2045,0.2046,0,0,0,0,0,0,0.2153,0.2142,0.2061,0.2102,0.2092,0.2065,0.2037,0.2032,0.2026,0.2013,0.2011,0.2011,0.2001,0.2001,0.2011,0.2027,0.1999,0.1999,0.2043,0.2044,0.2046,0.2075,0,0,0,0,0,0,0.2156,0.2143,0.2138,0.2101,0.209,0.2054,0.2037,0.2032,0.2024,0.2021,0.2011,0.201,0.2001,0.201,0.2011,0.2027,0.1999,0.2042,0.2044,0.2045,0.2073,0.2077,0.2081,0,0,0,0,0,0.216,0.2153,0.2137,0.2128,0.2078,0.2055,0.2051,0.2031,0.2025,0.2024,0.2021,0.201,0.2023,0.2011,0.2012,0.2029,0.2041,0.2043,0.2045,0.2071,0.2076,0.2081,0,0,0,0,0,0,0.2213,0.2148,0.213,0.2106,0.2082,0.2049,0.2051,0.2036,0.2032,0.2034,0.2021,0.202,0.2036,0.2031,0.2018,0.2049,0.2031,0.2034,0.2051,0.2056,0.206,0.205,0.2,0,0,0,0,0,0.2219,0.2187,0.2142,0.2126,0.2113,0.2084,0.2077,0.206,0.2046,0.2043,0.2035,0.2036,0.2047,0.2049,0.2054,0.207,0.2073,0.2082,0.2087,0.209,0.2084,0.2119,0.2125,0.2054,0.2054,0.2054,0,0,0.2238,0.2198,0.2184,0.2135,0.2115,0.2095,0.2078,0.2065,0.2056,0.2046,0.2043,0.2051,0.2055,0.2071,0.2078,0.2068,0.2113,0.2093,0.2096,0.2088,0.2122,0.2129,0.2135,0.2055,0.2055,0.2055,0,0,0.2249,0.2221,0.2193,0.217,0.2135,0.2118,0.2114,0.2081,0.2076,0.2076,0.2073,0.2089,0.2093,0.21,0.2106,0.2138,0.2135,0.2144,0.2155,0.219,0.2196,0.2201,0.2213,0.2219,0.2145,0.2145,0.2145,0,0.2277,0.2221,0.2191,0.2159,0.2144,0.2126,0.2105,0.2102,0.208,0.2088,0.2079,0.2106,0.2107,0.2135,0.2142,0.2147,0.2159,0.2135,0.2195,0.22,0.2205,0.2216,0.2222,0.2147,0.2147,0.2146,0.2146,0,0.2252,0.2218,0.2207,0.2151,0.2143,0.2123,0.2107,0.2111,0.2109,0.2107,0.2134,0.214,0.2156,0.2165,0.216,0.22,0.2194,0.2198,0.218,0.2214,0.2223,0.2229,0.2149,0.2149,0.2148,0.2148,0,0,0.2271,0.2199,0.2194,0.2161,0.2132,0.2114,0.2126,0.2122,0.2131,0.2139,0.2154,0.2179,0.2191,0.2198,0.2205,0.2227,0.227,0.2225,0.2226,0.2232,0.2335,0.2285,0.2287,0.229,0.2291,0.2292,0.2326,0,0.2254,0.2187,0.2168,0.213,0.2092,0.2097,0.2106,0.2116,0.2132,0.2151,0.2181,0.2199,0.2203,0.2213,0.2243,0.2265,0.2288,0.2259,0.2304,0.2305,0.2254,0.2293,0.2158,0.2173,0.2332,0.2333,0.2334,0,0.2217,0.2174,0.2121,0.2089,0.208,0.2071,0.2084,0.2093,0.2138,0.2158,0.2199,0.2218,0.226,0.2252,0.2318,0.2302,0.2318,0.233,0.2333,0.2277,0.2267,0.2166,0.2178,0.2082,0.2343,0.2342,0.2342,0,0.219,0.2142,0.2095,0.2078,0.2048,0.2049,0.2056,0.2093,0.2113,0.2163,0.2191,0.2244,0.2274,0.2312,0.2347,0.2338,0.241,0.2403,0.2371,0.2367,0.2254,0.2238,0.2171,0.2443,0.2443,0.2443,0.2443,0,0.2144,0.2102,0.2076,0.2035,0.2017,0.2021,0.2027,0.2052,0.2103,0.2134,0.2192,0.2227,0.2293,0.2343,0.2362,0.239,0.2431,0.2374,0.2378,0.226,0.2244,0.2156,0.213,0.2444,0.2444,0.2444,0.2444,0,0.2079,0.206,0.2001,0.1981,0.1983,0.1967,0.1998,0.2012,0.2073,0.2118,0.2136,0.2229,0.2296,0.2351,0.2412,0.2407,0.2345,0.2427,0.2272,0.2256,0.2115,0.2095,0.2002,0.1939,0.2388,0.2387,0.2386,0,0.2019,0.1979,0.1955,0.1941,0.1921,0.1918,0.1926,0.1983,0.2007,0.2114,0.2133,0.2221,0.227,0.2349,0.2345,0.2367,0.231,0.2252,0.2204,0.2086,0.2069,0.2013,0.1964,0.2066,0.2062,0.206,0.2057,0,0.1913,0.1915,0.188,0.1862,0.1855,0.1852,0.1871,0.1889,0.1969,0.2021,0.2093,0.2141,0.2218,0.2185,0.2219,0.2214,0.2103,0.2195,0.2117,0.1844,0.1735,0.1682,0.2057,0.2033,0.2035,0.2037,0.2038,0.2039,0.1847,0.182,0.1803,0.178,0.178,0.1778,0.1761,0.1807,0.1844,0.1904,0.1997,0.2026,0.2026,0.2051,0.2038,0.1891,0.1942,0.18,0.1798,0.1761,0.1655,0.1967,0.1924,0.1926,0.1927,0.1929,0.193,0,0.1768,0.1754,0.1728,0.1702,0.1676,0.1704,0.1717,0.1702,0.172,0.1787,0.1835,0.1792,0.1736,0.172,0.1594,0.1495,0.1438,0.1436,0.1311,0.1294,0.1597,0.1535,0.1351,0.1351,0.1351,0.1351,0.1351,0.1351,0.1724,0.1682,0.1673,0.1607,0.1591,0.1542,0.1535,0.1539,0.1562,0.1543,0.1509,0.1523,0.1491,0.1356,0.1199,0.1163,0.1064,0.0997,0.1038,0.1225,0.1257,0.1289,0.1222,0.0976,0.0976,0.0646,0.0644,0.0642]},{"header":{"parameterUnit":"m.s-1","parameterCategory":2,"la1":30.2991,"la2":30.254,"lo1":-89.0895,"lo2":-89.0444,"dy":0.0017,"dx":0.0017,"nx":28,"ny":28,"refTime":"2024-12-01T03:00:00:Z","depth":"0","parameterNumber":3,"parameterNumberName":"V-component_of_CURRENTS"},"data":[0,0,0,0,0,0,0,0,0,0,0,0,0,0,0,0,0,0,0,0,0,0,0,0,0,0,0,0,0,0,0,0,0,0,0,0,0,0,0,0,0,0,0,0,0,0,0,0,0,0,0,0,0,0,0,0,0,0,-0.0087,-0.0087,0,-0.0114,-0.0115,-0.0115,-0.014,-0.014,-0.014,-0.014,-0.0192,-0.0194,-0.0195,0,0,0,0,0,0,0,0,0,0,0,0,0,-0.0122,-0.0121,-0.0087,-0.0087,-0.0087,-0.0114,-0.0115,-0.0115,-0.014,-0.014,-0.014,-0.014,-0.0192,-0.0193,-0.0195,0,0,0,0,0,0,0,0,0,0,0,0,0,-0.0126,-0.0121,-0.0087,-0.01,-0.0102,-0.0114,-0.0115,-0.0115,-0.014,-0.014,-0.014,-0.014,-0.0191,-0.0193,-0.0195,-0.0208,0,0,-0.0202,-0.0203,0,0,0,0,0,0,0,0,-0.0126,-0.0125,-0.0098,-0.01,-0.0101,-0.0121,-0.0146,-0.0147,-0.014,-0.0128,-0.014,-0.014,-0.0169,-0.0173,-0.0182,-0.021,-0.0213,-0.0202,-0.0203,-0.0204,-0.0205,0,0,0,0,0,0,0,-0.0125,-0.0125,-0.0101,-0.0098,-0.01,-0.0127,-0.0127,-0.0147,-0.0151,-0.0129,-0.013,-0.0129,-0.017,-0.018,-0.0183,-0.0213,-0.0202,-0.0204,-0.0205,-0.0206,-0.0239,-0.0239,0,0,0,0,0,0,-0.0112,-0.0124,-0.01,-0.0102,-0.011,-0.0126,-0.0126,-0.0117,-0.015,-0.0154,-0.0128,-0.0129,-0.0176,-0.0181,-0.0185,-0.0178,-0.0204,-0.0206,-0.0207,-0.024,-0.0239,-0.0239,0,0,0,0,0,0,-0.0113,-0.011,-0.0099,-0.0112,-0.0112,-0.0124,-0.0114,-0.0117,-0.0123,-0.0149,-0.0154,-0.0129,-0.0176,-0.0182,-0.0195,-0.0181,-0.0207,-0.0209,-0.024,-0.024,-0.0239,-0.018,0,0,0,0,0,0,-0.0114,-0.011,-0.0104,-0.011,-0.011,-0.0098,-0.0114,-0.0118,-0.012,-0.0122,-0.0151,-0.0157,-0.0177,-0.0192,-0.0197,-0.0185,-0.0211,-0.0241,-0.024,-0.0239,-0.0182,-0.0177,-0.0173,0,0,0,0,0,-0.0115,-0.0104,-0.0104,-0.0101,-0.01,-0.0097,-0.01,-0.0112,-0.012,-0.0118,-0.0138,-0.0155,-0.0191,-0.0193,-0.02,-0.0187,-0.0241,-0.024,-0.0239,-0.0184,-0.0178,-0.0173,0,0,0,0,0,0,-0.013,-0.0106,-0.0105,-0.0092,-0.009,-0.01,-0.01,-0.0107,-0.0123,-0.0125,-0.0153,-0.0159,-0.0166,-0.0186,-0.0188,-0.0196,-0.0218,-0.0219,-0.0174,-0.0169,-0.0165,-0.0143,-0.0212,0,0,0,0,0,-0.0126,-0.0104,-0.0096,-0.0087,-0.0082,-0.009,-0.0093,-0.0097,-0.0108,-0.0115,-0.0134,-0.0155,-0.0169,-0.0176,-0.0195,-0.02,-0.021,-0.0196,-0.0192,-0.0187,-0.0175,-0.0174,-0.0167,-0.0236,-0.0236,-0.0236,0,0,-0.0132,-0.0114,-0.0106,-0.0088,-0.0088,-0.0071,-0.0092,-0.0088,-0.0077,-0.0118,-0.0116,-0.0142,-0.0167,-0.0171,-0.0176,-0.0185,-0.0176,-0.0186,-0.0183,-0.0172,-0.0172,-0.0165,-0.0159,-0.0236,-0.0236,-0.0236,0,0,-0.0121,-0.0114,-0.0086,-0.0076,-0.0062,-0.0063,-0.0057,-0.006,-0.0063,-0.0066,-0.009,-0.0101,-0.013,-0.0137,-0.0147,-0.0128,-0.0153,-0.0141,-0.0097,-0.0096,-0.009,-0.0085,-0.0096,-0.0092,-0.0136,-0.0136,-0.0136,0,-0.013,-0.0088,-0.0084,-0.0053,-0.0038,-0.0052,-0.0024,-0.0029,-0.0039,-0.0033,-0.0057,-0.0081,-0.0109,-0.0097,-0.0095,-0.0116,-0.0126,-0.0114,-0.0088,-0.0084,-0.0079,-0.0091,-0.0088,-0.0133,-0.0133,-0.0133,-0.0134,0,-0.009,-0.006,-0.0045,-0.0002,0.0008,0.0028,0.0033,0.0034,0.0024,0.0023,0.0024,-0.0014,-0.0024,-0.0037,-0.0064,-0.0044,-0.0066,-0.0083,-0.0098,-0.0068,-0.0084,-0.0081,-0.0128,-0.013,-0.013,-0.0131,0,0,-0.0089,-0.0026,-0.0019,0.0015,0.0042,0.0058,0.0076,0.0099,0.0123,0.0098,0.0125,0.0091,0.0069,0.0057,0.0024,0.0021,0.0031,-0.0017,-0.0018,-0.0019,0.0026,0.0008,0.0008,0.0018,0.0019,0.0019,0.0001,0,-0.0054,0.002,0.0037,0.0096,0.0136,0.0134,0.0158,0.0171,0.0171,0.0188,0.0158,0.0161,0.0107,0.0099,0.0089,0.0047,0.0042,0.0038,-0.0009,-0.0011,-0.0023,0.0013,0.0047,0.0033,0.0003,0.0004,0.0004,0,-0.0006,0.0041,0.011,0.0171,0.0186,0.021,0.0254,0.0275,0.029,0.0288,0.0285,0.0254,0.0242,0.0188,0.0145,0.0144,0.0092,0.0056,0.0054,0.0022,-0.0023,-0.0001,0.0039,-0.0002,0.0008,0.0008,0.0007,0,0.0025,0.0095,0.0156,0.0176,0.0234,0.0256,0.028,0.0308,0.0339,0.0353,0.0371,0.0345,0.0332,0.0276,0.0184,0.0167,0.0136,0.0102,0.0041,0.0038,0.0051,0.0048,0.0056,0.0081,0.0081,0.0081,0.0081,0,0.0076,0.0124,0.0174,0.021,0.0277,0.0298,0.0363,0.0379,0.0415,0.0468,0.0425,0.0449,0.0354,0.0314,0.0224,0.0145,0.0165,0.0062,0.0041,0.007,0.0069,0.002,-0.0015,0.008,0.0081,0.0081,0.0081,0,0.0114,0.0147,0.0219,0.0279,0.0299,0.0347,0.0414,0.0461,0.0485,0.0549,0.0552,0.0532,0.0482,0.0383,0.0291,0.0203,0.0096,0.0085,0.0118,0.0102,0.0001,-0.0032,-0.0065,-0.0097,0.0023,0.0023,0.0023,0,0.0147,0.019,0.0265,0.0304,0.0333,0.0401,0.0449,0.0491,0.0543,0.0602,0.0635,0.0606,0.06,0.046,0.0311,0.0172,0.0097,0.009,0.0065,0.0017,-0.0036,-0.0068,-0.0095,0.01,0.01,0.0101,0.0101,0,0.0204,0.0224,0.0278,0.0353,0.0409,0.0484,0.0552,0.0601,0.0659,0.0716,0.0773,0.0774,0.0653,0.054,0.0343,0.0232,0.0071,0.009,0.0045,0.0036,-0.0,-0.0048,0.0077,0.0103,0.0103,0.0103,0.0103,0.0103,0.0237,0.0276,0.0333,0.0405,0.0472,0.0551,0.0611,0.0688,0.0779,0.0869,0.0869,0.0904,0.0742,0.049,0.0341,0.0105,0.0082,0.0037,0.0002,-0.0025,-0.0053,0.0068,0.0065,0.0064,0.0064,0.0063,0.0063,0,0.0274,0.0311,0.0379,0.046,0.053,0.056,0.0668,0.0732,0.0838,0.0938,0.0995,0.0949,0.0763,0.0533,0.0221,0.0061,-0.0012,-0.0028,-0.0048,-0.0072,0.0053,0.0059,0.005,0.005,0.005,0.005,0.005,0.005,0.0294,0.0351,0.038,0.0487,0.0543,0.0634,0.0694,0.0797,0.0888,0.1005,0.1046,0.1055,0.0884,0.0404,0.0077,-0.0007,-0.0115,-0.0133,-0.021,-0.0102,-0.0097,-0.0094,-0.0094,-0.0135,-0.0135,-0.0301,-0.0302,-0.0304]}],[{"header":{"parameterUnit":"m.s-1","parameterCategory":2,"la1":30.2991,"la2":30.254,"lo1":-89.0895,"lo2":-89.0444,"dy":0.0017,"dx":0.0017,"nx":28,"ny":28,"refTime":"2024-12-01T03:00:00:Z","depth":"2","parameterNumber":2,"parameterNumberName":"U-component_of_CURRENTS"},"data":[0,0,0,0,0,0,0,0,0,0,0,0,0,0,0,0,0,0,0,0,0,0,0,0,0,0,0,0,0,0,0,0,0,0,0,0,0,0,0,0,0,0,0,0,0,0,0,0,0,0,0,0,0,0,0,0,0,0,0.1678,0.1678,0,0.1672,0.1672,0.1671,0.1663,0.1663,0.1663,0.1663,0.1675,0.1675,0.1675,0,0,0,0,0,0,0,0,0,0,0,0,0,0.1705,0.1704,0.1678,0.1678,0.1678,0.1672,0.1672,0.1671,0.1663,0.1663,0.1663,0.1663,0.1675,0.1675,0.1675,0,0,0,0,0,0,0,0,0,0,0,0,0,0.1694,0.1704,0.1678,0.1674,0.1674,0.1672,0.1672,0.1671,0.1663,0.1663,0.1663,0.1663,0.1675,0.1675,0.1675,0.1678,0,0,0.1677,0.1677,0,0,0,0,0,0,0,0,0.1695,0.1693,0.1675,0.1675,0.1674,0.1669,0.1686,0.1675,0.1663,0.1665,0.1663,0.1663,0.1676,0.1676,0.1672,0.1679,0.1679,0.1677,0.1677,0.1677,0.1678,0,0,0,0,0,0,0,0.1695,0.1693,0.1674,0.1675,0.1675,0.1681,0.1679,0.1683,0.167,0.1665,0.1665,0.1667,0.1675,0.1672,0.1673,0.168,0.1677,0.1677,0.1678,0.1678,0.1731,0.1732,0,0,0,0,0,0,0.1698,0.1694,0.1674,0.1674,0.1686,0.168,0.1678,0.167,0.1669,0.167,0.1667,0.1666,0.1671,0.1672,0.1673,0.171,0.1677,0.1678,0.1678,0.173,0.1731,0.1732,0,0,0,0,0,0,0.1698,0.1696,0.1674,0.1686,0.1684,0.168,0.1671,0.167,0.1676,0.1671,0.1671,0.1676,0.1671,0.1673,0.1685,0.1709,0.1678,0.1679,0.1728,0.173,0.1732,0.1763,0,0,0,0,0,0,0.1699,0.1696,0.1697,0.1685,0.1683,0.1683,0.1671,0.167,0.1677,0.1677,0.1678,0.1679,0.1671,0.1684,0.1685,0.1709,0.1679,0.1727,0.1729,0.1731,0.176,0.1765,0.177,0,0,0,0,0,0.17,0.1701,0.1696,0.1695,0.1682,0.1684,0.1683,0.168,0.1678,0.1685,0.1684,0.1679,0.1699,0.1685,0.1686,0.1711,0.1726,0.1728,0.1731,0.1758,0.1764,0.1769,0,0,0,0,0,0,0.1714,0.17,0.1695,0.1691,0.1693,0.1683,0.1692,0.1688,0.1692,0.1695,0.1686,0.1687,0.1711,0.1707,0.1692,0.1734,0.1715,0.1718,0.1735,0.1741,0.1746,0.1742,0.1679,0,0,0,0,0,0.1717,0.1714,0.1704,0.1705,0.1707,0.1701,0.1704,0.1702,0.1702,0.1704,0.1702,0.1708,0.1721,0.1726,0.1735,0.1752,0.1753,0.1772,0.1776,0.178,0.1779,0.1808,0.1815,0.174,0.174,0.174,0,0,0.1726,0.1717,0.1717,0.1709,0.1709,0.1712,0.1703,0.1713,0.1718,0.1706,0.1717,0.1725,0.1731,0.1752,0.1763,0.175,0.1802,0.1783,0.1787,0.1783,0.1811,0.1818,0.1825,0.1742,0.1742,0.1742,0,0,0.1737,0.1733,0.1732,0.1734,0.1736,0.1732,0.1738,0.1735,0.174,0.1752,0.1749,0.1769,0.1781,0.1788,0.1795,0.1831,0.1828,0.1841,0.1857,0.1886,0.1892,0.1898,0.1906,0.1912,0.184,0.1841,0.1841,0,0.1749,0.1739,0.1737,0.1736,0.1741,0.1743,0.1748,0.1753,0.1755,0.1767,0.1763,0.1796,0.1799,0.1829,0.1839,0.1842,0.185,0.1834,0.1892,0.1897,0.1902,0.1909,0.1915,0.1842,0.1842,0.1842,0.1842,0,0.1751,0.1751,0.1756,0.1751,0.176,0.1767,0.1773,0.1786,0.1795,0.1801,0.1837,0.1842,0.1863,0.1872,0.1864,0.1905,0.1897,0.1896,0.1875,0.1911,0.1917,0.1922,0.1845,0.1844,0.1844,0.1843,0,0,0.1751,0.1754,0.1756,0.1755,0.1768,0.177,0.1796,0.1814,0.1831,0.185,0.1875,0.1902,0.1912,0.1919,0.1921,0.1938,0.1977,0.1931,0.1931,0.1934,0.203,0.1973,0.1973,0.1989,0.1991,0.1992,0.2018,0,0.1752,0.175,0.1756,0.1765,0.1766,0.1785,0.1804,0.1828,0.1852,0.1878,0.1906,0.193,0.1929,0.1941,0.1964,0.1976,0.1994,0.1969,0.1998,0.1999,0.194,0.1979,0.1798,0.1802,0.2024,0.2025,0.2026,0,0.1741,0.1743,0.1748,0.1764,0.1768,0.1777,0.1813,0.1832,0.188,0.1904,0.1946,0.1963,0.2,0.1988,0.2038,0.2024,0.203,0.2034,0.2035,0.1973,0.1952,0.1803,0.1804,0.2035,0.2034,0.2033,0.2033,0,0.1722,0.1734,0.1736,0.1741,0.1762,0.1777,0.1796,0.1842,0.1867,0.1922,0.1951,0.1998,0.2025,0.2052,0.2068,0.2059,0.2111,0.2101,0.2055,0.205,0.1896,0.1875,0.2135,0.2135,0.2134,0.2134,0.2134,0,0.1703,0.1704,0.1726,0.1724,0.1737,0.1764,0.179,0.1822,0.1876,0.1907,0.1962,0.1992,0.2045,0.2079,0.2086,0.209,0.2134,0.2061,0.2059,0.1901,0.1882,0.2082,0.2076,0.2135,0.2135,0.2135,0.2135,0,0.1669,0.1683,0.1685,0.1712,0.1722,0.1732,0.1779,0.1798,0.1861,0.1905,0.1925,0.2003,0.2048,0.2086,0.2126,0.2107,0.2114,0.2102,0.1904,0.1877,0.2027,0.2022,0.2052,0.2051,0.2049,0.2048,0.2047,0,0.1643,0.1642,0.1668,0.167,0.168,0.1704,0.1719,0.1782,0.1806,0.1902,0.1915,0.1987,0.201,0.2054,0.2031,0.2029,0.2093,0.1861,0.181,0.2027,0.2021,0.2019,0.2016,0.1616,0.1611,0.1608,0.1605,0,0.16,0.1615,0.1619,0.1628,0.1638,0.165,0.168,0.1696,0.1769,0.1807,0.1853,0.188,0.1925,0.1838,0.1846,0.1825,0.1847,0.1787,0.2074,0.1668,0.1618,0.1612,0.1623,0.1572,0.1576,0.1578,0.158,0.1581,0.157,0.1564,0.1576,0.1574,0.1586,0.1581,0.1566,0.1599,0.162,0.1645,0.1731,0.1707,0.1718,0.1632,0.1578,0.1537,0.1673,0.1588,0.1598,0.1612,0.156,0.1511,0.1435,0.1437,0.1439,0.1441,0.1442,0,0.1522,0.1521,0.1519,0.1507,0.1485,0.1519,0.1521,0.1485,0.1466,0.1503,0.1518,0.1381,0.1314,0.1333,0.1206,0.1201,0.1182,0.1159,0.1111,0.1144,0.1174,0.1098,0.085,0.0849,0.0847,0.0845,0,0,0.1497,0.1472,0.1466,0.1407,0.1399,0.1345,0.1329,0.1287,0.1279,0.1224,0.1188,0.1271,0.1291,0.106,0.1023,0.091,0.1026,0.0875,0.1349,0.1326,0.1354,0.142,0.134,0,0,0,0,0]},{"header":{"parameterUnit":"m.s-1","parameterCategory":2,"la1":30.2991,"la2":30.254,"lo1":-89.0895,"lo2":-89.0444,"dy":0.0017,"dx":0.0017,"nx":28,"ny":28,"refTime":"2024-12-01T03:00:00:Z","depth":"2","parameterNumber":3,"parameterNumberName":"V-component_of_CURRENTS"},"data":[0,0,0,0,0,0,0,0,0,0,0,0,0,0,0,0,0,0,0,0,0,0,0,0,0,0,0,0,0,0,0,0,0,0,0,0,0,0,0,0,0,0,0,0,0,0,0,0,0,0,0,0,0,0,0,0,0,0,0.0213,0.0213,0,0.0181,0.0181,0.0181,0.0157,0.0157,0.0157,0.0156,0.0119,0.0118,0.0117,0,0,0,0,0,0,0,0,0,0,0,0,0,0.0216,0.0216,0.0213,0.0213,0.0212,0.0181,0.0181,0.0181,0.0157,0.0157,0.0157,0.0156,0.0119,0.0118,0.0117,0,0,0,0,0,0,0,0,0,0,0,0,0,0.0202,0.0216,0.0213,0.0197,0.0196,0.0182,0.0181,0.018,0.0157,0.0157,0.0157,0.0156,0.012,0.0118,0.0117,0.0114,0,0,0.0113,0.0113,0,0,0,0,0,0,0,0,0.0203,0.0202,0.02,0.0198,0.0196,0.0173,0.0168,0.0158,0.0157,0.0171,0.0156,0.0156,0.0137,0.0134,0.0128,0.0112,0.0111,0.0113,0.0112,0.0112,0.0111,0,0,0,0,0,0,0,0.0204,0.0203,0.02,0.02,0.0197,0.0179,0.0177,0.0166,0.0155,0.017,0.0168,0.0166,0.0136,0.013,0.0127,0.011,0.0113,0.0112,0.0111,0.0111,0.009,0.0091,0,0,0,0,0,0,0.0211,0.0204,0.0201,0.0199,0.02,0.0179,0.0177,0.0181,0.0156,0.0152,0.0166,0.0165,0.0132,0.0129,0.0126,0.0127,0.0112,0.0111,0.011,0.009,0.009,0.0091,0,0,0,0,0,0,0.0212,0.0212,0.0202,0.0201,0.0198,0.018,0.0184,0.018,0.0173,0.0153,0.0149,0.0163,0.0132,0.0128,0.0121,0.0125,0.011,0.0109,0.009,0.009,0.009,0.0126,0,0,0,0,0,0,0.0212,0.0212,0.0215,0.0202,0.0199,0.0196,0.0184,0.018,0.0172,0.017,0.0148,0.0145,0.0131,0.0123,0.012,0.0123,0.0108,0.009,0.009,0.009,0.0125,0.0128,0.013,0,0,0,0,0,0.0212,0.022,0.0216,0.0215,0.0205,0.0196,0.0193,0.0178,0.0172,0.0171,0.016,0.0145,0.0123,0.0123,0.0119,0.0122,0.0089,0.009,0.009,0.0123,0.0127,0.013,0,0,0,0,0,0,0.0219,0.0218,0.0213,0.0219,0.0209,0.0193,0.019,0.0181,0.017,0.0169,0.015,0.0146,0.0141,0.0127,0.0127,0.0117,0.0103,0.0103,0.013,0.0133,0.0136,0.0146,0.0107,0,0,0,0,0,0.0224,0.0232,0.0222,0.0225,0.0222,0.0206,0.02,0.0191,0.0181,0.0176,0.0161,0.0148,0.014,0.0134,0.0122,0.0118,0.0105,0.0116,0.0119,0.0122,0.0128,0.0115,0.0117,0.0092,0.0092,0.0092,0,0,0.0226,0.0227,0.023,0.0227,0.0218,0.0219,0.0202,0.0196,0.0199,0.0174,0.0171,0.0157,0.0141,0.0137,0.0134,0.0126,0.0121,0.0122,0.0125,0.0129,0.0116,0.0118,0.0121,0.0093,0.0092,0.0092,0,0,0.0236,0.0236,0.0245,0.0242,0.0234,0.0228,0.0228,0.0214,0.0208,0.0204,0.0189,0.018,0.0163,0.0155,0.0149,0.016,0.0137,0.0152,0.0174,0.0162,0.0164,0.0166,0.015,0.015,0.0153,0.0153,0.0153,0,0.0239,0.025,0.0244,0.0251,0.0252,0.0235,0.0242,0.0235,0.0221,0.0223,0.0207,0.019,0.0173,0.0177,0.0178,0.0167,0.0154,0.0164,0.0166,0.0168,0.0169,0.0152,0.0151,0.0155,0.0154,0.0154,0.0154,0,0.0255,0.0263,0.0267,0.0275,0.0275,0.0278,0.0271,0.0269,0.026,0.0254,0.0251,0.0227,0.0218,0.0209,0.0196,0.0198,0.0184,0.0172,0.016,0.0174,0.0154,0.0153,0.0157,0.0157,0.0156,0.0156,0,0,0.0269,0.0278,0.028,0.0289,0.029,0.0294,0.0301,0.0306,0.032,0.0296,0.0308,0.0285,0.0271,0.0263,0.0242,0.0229,0.022,0.0205,0.0204,0.0193,0.019,0.018,0.0178,0.0208,0.0209,0.0209,0.0172,0,0.0284,0.0305,0.0306,0.0326,0.0337,0.0331,0.0344,0.0347,0.0345,0.0351,0.0326,0.0326,0.0292,0.0288,0.027,0.0237,0.0219,0.0231,0.0175,0.0173,0.0166,0.0177,0.0197,0.0166,0.0171,0.0171,0.017,0,0.0301,0.0315,0.0337,0.0361,0.0366,0.0377,0.0402,0.0412,0.0418,0.0415,0.0406,0.0385,0.0365,0.0331,0.0279,0.0288,0.0242,0.021,0.0208,0.0187,0.0162,0.0153,0.0164,0.0168,0.0168,0.0169,0.0169,0,0.0317,0.034,0.0361,0.0367,0.0388,0.0401,0.0417,0.0432,0.0455,0.0457,0.047,0.0437,0.0427,0.0368,0.0295,0.0287,0.0235,0.0215,0.0162,0.016,0.0161,0.016,0.0175,0.0175,0.0175,0.0175,0.0175,0,0.0335,0.0353,0.0371,0.0383,0.0421,0.0428,0.0472,0.0481,0.0506,0.0545,0.0506,0.0521,0.0435,0.0392,0.0316,0.024,0.0248,0.017,0.0153,0.0173,0.0173,0.0162,0.0161,0.0174,0.0174,0.0174,0.0175,0,0.0346,0.0355,0.0385,0.0414,0.0428,0.0457,0.0511,0.0547,0.0562,0.061,0.0611,0.0587,0.0536,0.0443,0.0351,0.0276,0.0197,0.0163,0.019,0.0177,0.0122,0.0124,0.0103,0.0103,0.0102,0.0102,0.0102,0,0.0351,0.0366,0.0409,0.0438,0.0452,0.0499,0.0539,0.0571,0.0616,0.0655,0.0682,0.0645,0.0632,0.0491,0.0359,0.0229,0.02,0.0146,0.0133,0.0131,0.0117,0.0118,0.012,0.0144,0.0144,0.0144,0.0144,0,0.0365,0.038,0.0408,0.0466,0.051,0.0569,0.0626,0.0668,0.0717,0.0756,0.0795,0.0786,0.0666,0.0546,0.0364,0.027,0.0168,0.0142,0.0139,0.016,0.0167,0.0153,0.0154,0.0144,0.0144,0.0144,0.0144,0.0144,0.0379,0.0404,0.0444,0.0501,0.0557,0.063,0.0683,0.0749,0.0822,0.0882,0.0873,0.0859,0.0727,0.0501,0.0346,0.0174,0.0185,0.0113,0.0114,0.0115,0.0128,0.0133,0.0106,0.0106,0.0106,0.0106,0.0106,0,0.0399,0.043,0.048,0.0548,0.0611,0.0639,0.0738,0.0794,0.0881,0.0923,0.0953,0.0819,0.0691,0.0522,0.0285,0.0144,0.0129,0.0081,0.0102,0.0104,0.0105,0.0117,0.0092,0.0092,0.0091,0.009,0,0,0.041,0.0458,0.0484,0.058,0.0631,0.072,0.0778,0.086,0.0911,0.0951,0.0938,0.0924,0.0734,0.0555,0.0373,0.0232,0.0191,0.0194,0.0223,0.0272,0.0274,0.0146,0.017,0,0,0,0,0]}],[{"header":{"parameterUnit":"m.s-1","parameterCategory":2,"la1":30.2991,"la2":30.254,"lo1":-89.0895,"lo2":-89.0444,"dy":0.0017,"dx":0.0017,"nx":28,"ny":28,"refTime":"2024-12-01T03:00:00:Z","depth":"4","parameterNumber":2,"parameterNumberName":"U-component_of_CURRENTS"},"data":[0,0,0,0,0,0,0,0,0,0,0,0,0,0,0,0,0,0,0,0,0,0,0,0,0,0,0,0,0,0,0,0,0,0,0,0,0,0,0,0,0,0,0,0,0,0,0,0,0,0,0,0,0,0,0,0,0,0,0.098,0.098,0,0.1005,0.1005,0.1005,0.1025,0.1026,0.1026,0.1026,0.1044,0.1044,0.1044,0,0,0,0,0,0,0,0,0,0,0,0,0,0.092,0.0921,0.098,0.098,0.0981,0.1005,0.1005,0.1005,0.1025,0.1026,0.1026,0.1027,0.1044,0.1044,0.1044,0,0,0,0,0,0,0,0,0,0,0,0,0,0.0943,0.0921,0.0979,0.0996,0.0998,0.1005,0.1005,0.1005,0.1025,0.1026,0.1026,0.1027,0.1044,0.1044,0.1044,0.1031,0,0,0.1045,0.1045,0,0,0,0,0,0,0,0,0.0942,0.0945,0.0993,0.0995,0.0997,0.1015,0.0991,0.1015,0.1025,0.1011,0.1026,0.1027,0.1035,0.1036,0.1035,0.1032,0.1033,0.1045,0.1045,0.1045,0.1045,0,0,0,0,0,0,0,0.094,0.0944,0.0987,0.0993,0.0996,0.0992,0.0996,0.0995,0.1017,0.1013,0.1015,0.1022,0.1036,0.1035,0.1036,0.1033,0.1045,0.1045,0.1045,0.1045,0.1095,0.1097,0,0,0,0,0,0,0.0944,0.0942,0.0986,0.0988,0.0974,0.0993,0.0997,0.1006,0.1017,0.102,0.1022,0.1023,0.1035,0.1036,0.1037,0.1087,0.1045,0.1045,0.1045,0.1094,0.1096,0.1097,0,0,0,0,0,0,0.0942,0.0947,0.0985,0.0968,0.0973,0.0994,0.1003,0.1006,0.1032,0.1024,0.1027,0.1047,0.1035,0.1037,0.1058,0.1085,0.1045,0.1045,0.1093,0.1095,0.1096,0.1146,0,0,0,0,0,0,0.094,0.0947,0.0962,0.0968,0.0974,0.1008,0.1003,0.1007,0.1035,0.1038,0.1046,0.1047,0.1036,0.1059,0.1059,0.1085,0.1045,0.1091,0.1093,0.1096,0.1143,0.1149,0.1155,0,0,0,0,0,0.0938,0.0954,0.0963,0.0969,0.0992,0.1009,0.1012,0.1026,0.1036,0.105,0.1058,0.1048,0.1074,0.1059,0.1059,0.1086,0.109,0.1093,0.1096,0.114,0.1148,0.1155,0,0,0,0,0,0,0.0935,0.0958,0.0967,0.099,0.1008,0.1014,0.1033,0.1041,0.1059,0.1069,0.106,0.1061,0.1092,0.1083,0.1067,0.1109,0.1083,0.1086,0.1116,0.1124,0.113,0.1137,0.1045,0,0,0,0,0,0.0942,0.0963,0.098,0.1001,0.1014,0.1029,0.1042,0.1053,0.1066,0.1075,0.1081,0.109,0.1099,0.1108,0.1112,0.1131,0.1128,0.1151,0.1157,0.1163,0.1169,0.1191,0.12,0.1107,0.1107,0.1107,0,0,0.0944,0.0963,0.0974,0.1003,0.102,0.104,0.1039,0.1069,0.1087,0.1073,0.1107,0.1113,0.111,0.1134,0.1147,0.1133,0.1187,0.1166,0.1171,0.1174,0.1195,0.1204,0.1212,0.1109,0.1108,0.1108,0,0,0.0958,0.0982,0.1004,0.1023,0.1058,0.1065,0.1081,0.1104,0.1121,0.1149,0.1146,0.1171,0.1183,0.1186,0.1188,0.1232,0.122,0.1239,0.1275,0.1296,0.1304,0.1311,0.1314,0.1321,0.1241,0.1241,0.1241,0,0.0965,0.0993,0.1013,0.104,0.106,0.1081,0.1106,0.1122,0.1149,0.1168,0.1171,0.1209,0.1208,0.1233,0.1251,0.1246,0.1251,0.1244,0.1304,0.1311,0.1317,0.1319,0.1325,0.1244,0.1244,0.1244,0.1243,0,0.0987,0.1019,0.1037,0.1076,0.1099,0.1127,0.1151,0.118,0.1205,0.1221,0.1267,0.127,0.1293,0.1299,0.1288,0.1333,0.1321,0.1309,0.1284,0.1329,0.1328,0.1334,0.1248,0.1247,0.1246,0.1246,0,0,0.0979,0.104,0.105,0.1074,0.1123,0.1139,0.1181,0.1219,0.1249,0.1285,0.1323,0.135,0.1364,0.1367,0.1364,0.1383,0.1427,0.1371,0.1371,0.1371,0.147,0.1366,0.1363,0.1431,0.1433,0.1434,0.145,0,0.0995,0.1048,0.1074,0.1121,0.1149,0.1183,0.1214,0.1253,0.1289,0.1329,0.1355,0.1388,0.1385,0.1404,0.1427,0.1427,0.1447,0.1423,0.1428,0.1428,0.1328,0.1367,0.1439,0.1455,0.1456,0.1457,0.1458,0,0.1007,0.1043,0.1095,0.1147,0.1163,0.1193,0.1252,0.1284,0.1342,0.1373,0.1422,0.1438,0.148,0.1466,0.1506,0.1495,0.1493,0.1489,0.149,0.138,0.1336,0.1401,0.1468,0.1467,0.1467,0.1466,0.1465,0,0.0989,0.1054,0.1096,0.1116,0.1178,0.1211,0.1246,0.1306,0.1338,0.1408,0.144,0.149,0.1519,0.1538,0.1542,0.1533,0.1572,0.1552,0.1456,0.1449,0.1514,0.1507,0.1582,0.1582,0.1582,0.1582,0.1582,0,0.0986,0.1022,0.1095,0.1118,0.1164,0.1212,0.1266,0.1309,0.1372,0.1405,0.1465,0.1491,0.1542,0.1566,0.1562,0.1526,0.1592,0.1468,0.145,0.1534,0.1529,0.1518,0.151,0.1583,0.1583,0.1583,0.1582,0,0.096,0.1011,0.1061,0.1135,0.116,0.1196,0.1272,0.1301,0.1372,0.1418,0.1443,0.151,0.1536,0.1565,0.1589,0.1537,0.1519,0.149,0.1577,0.1563,0.1375,0.137,0.138,0.1376,0.1373,0.1371,0.1369,0,0.095,0.0978,0.1065,0.109,0.1129,0.1188,0.122,0.1297,0.1322,0.1411,0.1417,0.1479,0.1509,0.1456,0.1501,0.1484,0.1464,0.144,0.1408,0.1375,0.1357,0.1357,0.1356,0.1364,0.1363,0.1363,0.1362,0,0.0926,0.097,0.1008,0.1061,0.1103,0.1138,0.1189,0.1198,0.1274,0.1353,0.1349,0.1354,0.1378,0.1387,0.1386,0.1373,0.1447,0.141,0.1415,0.1385,0.1357,0.1342,0.1344,0.1352,0.1353,0.1354,0.1355,0,0.091,0.0925,0.0979,0.1012,0.106,0.1062,0.11,0.1115,0.1147,0.1235,0.1235,0.1294,0.1363,0.133,0.1332,0.131,0.1283,0.1226,0.1241,0.1253,0.1203,0.1148,0.1068,0,0,0,0,0,0.0884,0.0888,0.0919,0.0942,0.0982,0.1007,0.1061,0.1096,0.117,0.113,0.1174,0.1186,0.1182,0.1218,0.1169,0.1281,0.1296,0.1217,0.124,0.1296,0.1308,0.1261,0,0,0,0,0,0,0.0863,0.0894,0.0897,0.0874,0.0873,0.0902,0.0932,0.0982,0.0961,0.1042,0.1046,0.1108,0.1127,0.1196,0.1145,0.1155,0.114,0.126,0.1256,0.1289,0.13,0.1309,0.1265,0,0,0,0,0]},{"header":{"parameterUnit":"m.s-1","parameterCategory":2,"la1":30.2991,"la2":30.254,"lo1":-89.0895,"lo2":-89.0444,"dy":0.0017,"dx":0.0017,"nx":28,"ny":28,"refTime":"2024-12-01T03:00:00:Z","depth":"4","parameterNumber":3,"parameterNumberName":"V-component_of_CURRENTS"},"data":[0,0,0,0,0,0,0,0,0,0,0,0,0,0,0,0,0,0,0,0,0,0,0,0,0,0,0,0,0,0,0,0,0,0,0,0,0,0,0,0,0,0,0,0,0,0,0,0,0,0,0,0,0,0,0,0,0,0,0.0227,0.0227,0,0.0213,0.0212,0.0212,0.0204,0.0204,0.0204,0.0204,0.0197,0.0197,0.0197,0,0,0,0,0,0,0,0,0,0,0,0,0,0.0227,0.0227,0.0227,0.0227,0.0227,0.0213,0.0212,0.0212,0.0204,0.0204,0.0204,0.0204,0.0197,0.0197,0.0197,0,0,0,0,0,0,0,0,0,0,0,0,0,0.0221,0.0227,0.0227,0.0221,0.0221,0.0213,0.0212,0.0212,0.0204,0.0204,0.0204,0.0204,0.0197,0.0197,0.0197,0.0195,0,0,0.0196,0.0196,0,0,0,0,0,0,0,0,0.0221,0.0221,0.0222,0.0222,0.0221,0.021,0.0209,0.0207,0.0204,0.021,0.0204,0.0204,0.0202,0.0201,0.0199,0.0195,0.0195,0.0196,0.0196,0.0195,0.0195,0,0,0,0,0,0,0,0.0222,0.0221,0.0221,0.0222,0.0221,0.0212,0.0211,0.0209,0.0207,0.021,0.0209,0.0208,0.0202,0.0199,0.0198,0.0194,0.0196,0.0196,0.0195,0.0195,0.0194,0.0195,0,0,0,0,0,0,0.0225,0.0222,0.0222,0.0221,0.0221,0.0212,0.0211,0.0214,0.0207,0.0205,0.0208,0.0207,0.0199,0.0199,0.0198,0.0204,0.0195,0.0195,0.0195,0.0194,0.0194,0.0195,0,0,0,0,0,0,0.0225,0.0225,0.0222,0.0221,0.022,0.0212,0.0215,0.0213,0.0213,0.0205,0.0204,0.0209,0.0199,0.0199,0.0201,0.0204,0.0195,0.0195,0.0194,0.0194,0.0194,0.0212,0,0,0,0,0,0,0.0225,0.0225,0.0229,0.0221,0.022,0.022,0.0215,0.0213,0.0212,0.0211,0.0206,0.0205,0.0199,0.0202,0.0201,0.0203,0.0195,0.0194,0.0194,0.0194,0.0211,0.0213,0.0214,0,0,0,0,0,0.0225,0.0231,0.023,0.023,0.0226,0.022,0.0219,0.0213,0.0212,0.0213,0.0211,0.0205,0.0202,0.0202,0.0201,0.0203,0.0194,0.0194,0.0194,0.021,0.0212,0.0214,0,0,0,0,0,0,0.0232,0.0231,0.0229,0.0234,0.0228,0.0219,0.022,0.0216,0.0214,0.0216,0.0209,0.0208,0.021,0.0205,0.0204,0.0203,0.0196,0.0196,0.0209,0.021,0.0212,0.0215,0.0194,0,0,0,0,0,0.0236,0.0242,0.0235,0.0239,0.0237,0.0229,0.0227,0.0223,0.022,0.0219,0.0215,0.0212,0.021,0.021,0.0206,0.0208,0.0195,0.0208,0.0209,0.021,0.0212,0.0194,0.0194,0.0196,0.0196,0.0196,0,0,0.024,0.024,0.0243,0.0241,0.0237,0.0237,0.0228,0.0227,0.0229,0.0219,0.0223,0.0218,0.0212,0.0213,0.0213,0.0209,0.0203,0.0211,0.0212,0.0213,0.0194,0.0194,0.0194,0.0196,0.0196,0.0196,0,0,0.0248,0.0251,0.0255,0.0253,0.0248,0.0245,0.0246,0.0239,0.0238,0.024,0.0233,0.023,0.0228,0.0222,0.022,0.0227,0.0212,0.0226,0.0236,0.0219,0.0218,0.0218,0.0201,0.0199,0.0227,0.0227,0.0227,0,0.0252,0.0258,0.0255,0.0257,0.0258,0.0251,0.0255,0.0253,0.0247,0.0249,0.0244,0.0238,0.0231,0.0232,0.0234,0.023,0.0218,0.0231,0.022,0.0219,0.0219,0.0201,0.0199,0.0228,0.0228,0.0227,0.0227,0,0.026,0.0265,0.0268,0.0271,0.0272,0.0275,0.0272,0.0273,0.0272,0.0269,0.0269,0.0257,0.0254,0.0249,0.0244,0.0238,0.0231,0.0224,0.0216,0.0219,0.0201,0.0198,0.0229,0.0229,0.0228,0.0228,0,0,0.0268,0.0273,0.0274,0.028,0.0281,0.0284,0.029,0.0294,0.0303,0.0291,0.0296,0.0286,0.0278,0.0275,0.0264,0.0247,0.023,0.0236,0.0234,0.0219,0.0191,0.0186,0.0182,0.0221,0.0221,0.0221,0.018,0,0.0274,0.0283,0.0285,0.0298,0.0303,0.0304,0.0314,0.0317,0.0319,0.0322,0.0304,0.0307,0.0289,0.029,0.0269,0.0244,0.0223,0.0241,0.019,0.0188,0.0183,0.0179,0.0219,0.0178,0.0177,0.0177,0.0176,0,0.0279,0.0286,0.0299,0.0316,0.032,0.033,0.0348,0.0357,0.0359,0.036,0.0352,0.034,0.0321,0.0302,0.0253,0.0266,0.023,0.0203,0.0201,0.0189,0.0178,0.0173,0.0171,0.0171,0.0171,0.0172,0.0172,0,0.0283,0.0297,0.0311,0.0315,0.0332,0.0344,0.0358,0.0369,0.0387,0.0387,0.0395,0.0366,0.0361,0.0308,0.0256,0.0254,0.0196,0.0185,0.0143,0.0143,0.0151,0.0152,0.0141,0.0141,0.0142,0.0142,0.0142,0,0.0286,0.0298,0.0317,0.0323,0.0352,0.0359,0.0393,0.0401,0.042,0.0447,0.0418,0.0426,0.0362,0.0323,0.0263,0.0198,0.02,0.0144,0.0131,0.016,0.0162,0.0149,0.015,0.014,0.0141,0.0141,0.0141,0,0.0283,0.0293,0.0314,0.034,0.0354,0.0376,0.0424,0.045,0.0462,0.0493,0.0495,0.0473,0.0428,0.0356,0.0276,0.0218,0.0148,0.0122,0.0161,0.0151,0.0103,0.0106,0.0069,0.0069,0.0068,0.0068,0.0068,0,0.0279,0.0289,0.0328,0.0353,0.0368,0.0407,0.0441,0.0469,0.0501,0.0525,0.0539,0.0508,0.0483,0.0366,0.0286,0.0166,0.0146,0.0101,0.0095,0.0104,0.0095,0.0099,0.0102,0.0067,0.0067,0.0067,0.0067,0,0.0277,0.0295,0.0316,0.0367,0.0407,0.0454,0.0502,0.0526,0.0564,0.0572,0.0576,0.0519,0.0468,0.0375,0.0284,0.0197,0.0124,0.0096,0.0096,0.009,0.0101,0.0093,0.0097,0.0065,0.0065,0.0066,0.0066,0,0.0282,0.03,0.0337,0.0383,0.0436,0.0488,0.0512,0.0551,0.0581,0.0601,0.0604,0.0545,0.0516,0.0391,0.0308,0.0222,0.0194,0.015,0.0147,0.0147,0.0179,0.0204,0.019,0,0,0,0,0,0.0287,0.0313,0.0354,0.0405,0.0459,0.0492,0.0551,0.0573,0.0604,0.061,0.0608,0.056,0.0446,0.04,0.0314,0.0291,0.0174,0.0184,0.0119,0.0057,0.0059,0.0082,0,0,0,0,0,0,0.0291,0.0329,0.0351,0.0419,0.0458,0.052,0.0559,0.0581,0.0584,0.0599,0.0544,0.0521,0.0414,0.0496,0.0307,0.0282,0.0224,0.0136,0.0133,0.0056,0.0057,0.0059,0.0084,0,0,0,0,0]}]]